EHI
0 0 0 1 2 1 1 1 0 0 0 0 0 0 0 0 0 0 0 0 0 0 0 0 0 0 0 0 0 0 0 0 0 0 0 0 0 0 0 0 0 0 0
0 0 0 1 1 1 1 1 0 0 0 0 0 0 0 0 0 0 0 0 0 0 0 0 0 0 0 0 0 0 0 0 0 0 0 0 0 0 0 0 0 0 0
0 0 0 0 0 1 1 1 1 1 0 0 0 0 0 0 0 0 0 0 0 0 0 0 0 0 0 0 0 0 0 0 0 0 0 0 0 0 0 0 0 0 0
0 0 0 0 0 0 1 1 2 2 1 0 0 0 0 0 0 0 0 0 0 0 0 0 0 0 0 0 0 0 0 0 0 0 0 0 0 0 0 0 0 0 0
0 0 0 0 0 0 0 0 2 2 1 0 0 0 0 0 0 0 0 0 0 0 0 0 0 0 0 0 0 0 0 0 0 0 0 0 0 0 0 0 0 0 0
0 0 0 0 0 0 0 0 1 2 1 0 0 0 0 0 0 0 0 0 0 0 0 0 0 0 0 0 0 0 0 0 0 0 0 0 0 0 0 0 0 0 0
0 0 0 0 0 0 0 0 1 1 0 0 0 0 0 0 0 0 0 0 0 0 0 0 0 0 0 0 0 0 0 0 0 0 0 0 0 0 0 0 0 0 0
0 0 0 0 0 0 0 0 0 0 0 0 0 0 0 0 0 0 0 0 0 0 0 0 0 0 0 0 0 0 0 0 0 0 0 0 0 0 0 0 0 0 0
0 0 0 0 0 0 0 0 0 0 0 0 0 0 0 0 0 0 0 0 0 0 0 0 0 0 0 0 0 0 0 0 0 0 0 0 0 0 0 0 0 0 0
0 0 0 0 0 0 0 0 0 0 0 0 0 0 0 0 0 0 0 0 0 0 0 0 0 0 0 0 0 0 0 0 0 0 0 0 0 0 0 0 0 0 0
0 0 0 0 0 0 0 0 0 0 0 0 0 0 0 0 0 0 0 0 0 0 0 0 0 0 0 0 0 0 0 0 0 0 0 0 0 0 0 0 0 0 0
0 0 0 0 0 0 0 0 0 0 0 0 0 0 0 0 0 0 0 0 0 0 0 0 0 0 0 0 0 0 0 0 0 0 0 0 0 0 0 0 0 0 0
0 0 0 0 0 0 0 0 0 0 0 0 0 0 0 0 0 0 0 0 0 0 0 0 0 0 0 0 0 0 0 0 0 0 0 0 0 0 0 0 0 0 0
0 0 0 0 0 0 0 0 0 0 0 0 0 0 0 0 0 0 0 0 0 0 0 0 0 0 0 0 0 0 0 0 0 0 0 0 0 0 0 0 0 0 0
0 0 0 0 0 0 0 0 0 0 0 0 0 0 0 0 0 0 0 0 0 0 0 0 0 0 0 0 0 0 0 0 0 0 0 0 0 0 0 0 0 0 0
0 0 0 0 0 0 0 0 0 0 0 0 0 0 0 0 0 0 0 0 0 0 0 0 0 0 0 0 0 0 0 0 0 0 0 0 0 0 0 0 0 0 0
0 0 0 0 0 0 0 0 0 0 0 0 0 0 0 0 0 0 0 0 0 0 0 0 0 0 0 0 0 0 0 0 0 0 0 0 0 0 0 0 0 0 0
0 0 0 0 0 0 0 0 0 0 0 0 0 0 0 0 0 0 0 0 0 0 0 0 0 0 0 0 0 0 0 0 0 0 0 0 0 0 0 0 0 0 0
0 0 0 0 0 0 0 0 0 0 0 0 0 0 0 0 0 0 0 0 0 0 0 0 0 0 0 0 0 0 0 0 0 0 0 0 0 0 0 0 0 0 0
0 0 0 0 0 0 0 0 0 0 0 0 0 0 0 0 0 0 0 0 0 0 0 0 0 0 0 0 0 0 0 0 0 0 0 0 0 0 0 0 0 0 0
0 0 0 0 0 0 0 0 0 0 0 0 0 0 0 0 0 0 0 0 0 0 0 0 0 0 0 0 0 0 0 0 0 0 0 0 0 0 0 0 0 0 0
0 0 0 0 0 0 0 0 0 0 0 0 0 0 0 0 0 0 0 0 0 0 0 0 0 0 0 0 0 0 0 0 0 0 0 0 0 0 0 0 0 0 0
0 0 0 0 0 0 0 0 0 0 0 0 0 0 0 0 0 0 0 0 0 0 0 0 0 0 0 0 0 0 0 0 0 0 0 0 0 0 0 0 0 0 0
0 0 0 0 0 0 0 0 0 0 0 0 0 0 0 0 0 0 0 0 0 0 0 0 0 0 0 0 0 0 0 0 0 0 0 0 0 0 0 0 0 0 0
0 0 0 0 0 0 0 0 0 0 0 0 0 0 0 0 0 0 0 0 0 0 0 0 0 0 0 0 0 0 0 0 0 0 0 0 0 0 0 0 0 0 0
0 0 0 0 0 0 0 0 0 0 0 0 0 0 0 0 0 0 0 0 0 0 0 0 0 0 0 0 0 0 0 0 0 0 0 0 0 0 0 0 0 0 0
Wind_Speed
0 0 1 1 1 1 1 1 1 1 2 2 2 2 2 2 2 2 2 2 2 2 2 2 3 2 2 2 2 2 2 2 4 5 3 3 3 3 3 3 3 2 2
0 0 0 1 1 1 1 1 1 1 2 2 2 2 2 2 2 2 3 2 2 3 3 3 3 2 3 2 2 3 3 3 3 6 4 3 3 3 3 3 3 2 2
0 0 1 1 1 1 1 1 2 2 2 2 2 2 2 2 3 3 3 3 3 3 3 3 4 3 3 3 3 3 3 3 3 4 4 3 3 3 2 3 3 2 3
1 0 1 1 1 1 1 1 2 2 2 2 2 2 2 2 3 3 3 3 4 4 3 3 4 4 4 4 3 3 3 3 3 4 4 3 3 3 2 2 2 2 2
1 1 1 1 1 1 1 2 2 2 2 2 2 3 2 2 3 3 3 4 4 4 4 4 4 4 5 5 4 3 3 3 3 3 3 3 3 2 2 1 2 2 2
1 1 1 1 1 1 1 2 2 2 2 2 3 3 3 3 5 5 4 3 4 4 4 4 4 4 5 7 8 7 5 4 4 3 3 3 4 3 2 1 1 1 2
1 1 1 1 1 1 2 2 2 2 2 2 2 3 3 4 6 6 6 3 4 4 4 3 4 4 5 4 6 7 6 7 6 4 4 4 4 3 2 2 2 1 2
1 1 1 1 1 2 2 2 2 2 2 2 3 3 3 4 6 6 6 3 3 4 4 4 4 4 4 4 4 4 4 4 4 3 3 4 3 3 2 2 2 1 1
1 1 2 2 2 2 2 2 2 2 2 3 3 3 3 4 6 6 6 3 3 4 4 4 4 4 6 5 3 3 3 3 3 4 4 4 4 4 2 0 1 0 1
1 2 2 2 2 2 2 2 2 2 3 3 3 3 3 4 6 6 6 2 3 3 3 3 5 5 6 5 3 3 4 3 2 2 2 3 2 3 3 1 1 1 1
1 2 2 2 2 2 2 2 2 2 3 3 3 3 3 5 6 7 7 3 3 3 3 3 3 6 6 6 4 3 4 3 2 1 1 1 1 1 1 0 0 1 1
2 2 2 2 2 2 2 2 2 2 3 3 3 4 3 4 5 6 7 7 5 4 4 3 3 5 6 6 4 4 4 3 1 1 1 1 1 1 1 0 1 1 0
2 2 2 3 2 2 2 2 2 2 2 3 3 3 3 3 4 7 7 8 8 4 3 5 5 5 5 4 4 4 2 1 1 1 1 1 1 0 0 1 1 1 1
2 2 2 2 2 2 2 2 2 2 2 3 3 3 3 3 3 3 3 4 6 5 4 4 5 4 3 3 2 2 1 1 1 1 1 0 0 0 0 0 1 1 1
2 2 3 2 2 2 2 2 2 2 3 3 3 3 3 4 5 8 5 3 3 3 2 1 1 2 2 2 2 1 0 0 0 0 0 0 0 0 0 0 0 1 0
2 2 2 2 2 2 2 3 5 5 7 7 7 6 5 7 9 9 9 8 7 5 3 1 2 2 1 1 1 1 1 0 0 0 0 0 0 0 0 0 0 0 0
2 3 2 2 2 2 3 3 4 5 6 7 7 7 7 8 9 9 8 7 6 4 2 2 2 2 1 1 1 1 1 1 0 0 0 0 0 0 0 0 0 0 0
2 3 3 2 2 2 3 3 3 3 4 4 5 7 8 8 8 8 7 5 3 3 2 2 2 2 1 1 1 1 1 1 0 0 0 0 1 0 0 0 0 0 0
2 2 2 2 2 2 3 3 3 3 3 3 3 4 7 7 7 6 5 2 2 2 2 2 2 2 1 1 1 1 1 1 1 0 0 0 1 1 0 0 0 1 0
2 3 3 2 2 2 2 2 3 3 3 3 3 3 4 4 3 3 3 2 2 2 2 2 2 2 2 1 1 1 1 1 1 0 0 0 1 1 1 1 0 0 0
2 2 4 3 2 2 2 2 2 3 3 3 3 4 6 3 3 3 3 2 2 3 3 2 2 2 1 1 1 1 1 1 0 0 0 0 0 0 1 1 0 0 0
2 2 2 2 2 2 2 2 2 3 3 4 3 4 6 3 3 3 3 3 2 2 3 2 2 2 1 1 1 1 1 1 0 0 1 1 0 0 0 0 0 0 0
2 2 2 2 2 3 3 2 2 2 3 3 3 3 3 3 3 3 3 3 3 3 3 2 2 2 1 1 1 1 1 1 1 1 1 1 1 1 1 1 1 1 0
1 2 2 2 2 2 2 2 2 3 3 3 3 3 3 3 3 3 3 3 3 3 3 2 2 2 2 2 1 1 1 1 1 1 2 2 1 1 1 1 1 1 0
1 2 2 2 2 2 2 2 3 3 3 3 3 3 3 3 3 3 3 3 3 3 3 3 2 2 2 2 2 2 2 2 1 1 1 1 1 1 1 1 1 1 1
2 2 2 2 2 2 2 2 2 3 3 3 3 3 3 3 3 3 2 2 3 3 3 2 3 3 3 2 2 2 2 1 1 1 1 1 1 1 1 1 1 1 1
Wind_Direction
222 261 316 315 319 322 312 312 324 313 304 291 286 288 287 285 289 293 290 288 282 288 293 282 280 283 285 285 286 286 285 276 276 287 287 295 297 295 300 297 290 286 278
243 277 287 308 316 320 318 324 329 309 290 290 288 284 291 294 290 289 290 282 274 279 287 289 286 284 282 280 280 280 281 278 274 284 290 296 293 288 295 297 301 303 280
323 253 287 299 308 299 313 321 315 306 299 292 289 275 273 278 282 281 282 275 269 271 278 281 282 276 272 277 277 277 285 291 281 277 284 291 295 296 302 300 307 302 300
333 258 254 274 288 302 307 301 303 308 302 285 283 280 273 272 274 276 280 280 273 271 271 267 272 270 269 267 268 271 281 287 285 280 280 285 292 297 299 307 318 312 308
269 280 275 279 284 294 303 301 302 307 307 296 281 281 279 270 269 286 281 284 280 278 275 270 269 275 279 278 275 268 268 271 275 280 278 283 285 293 287 290 304 321 322
243 260 297 305 306 299 293 293 298 296 294 298 298 286 277 284 295 299 298 275 280 279 280 283 277 272 281 284 283 282 274 266 267 267 270 271 276 277 276 277 282 308 304
278 295 305 312 307 304 305 300 288 285 289 288 290 295 289 288 295 295 306 295 276 274 275 277 282 280 281 275 281 286 282 275 264 252 252 260 269 277 264 264 265 256 265
297 307 311 311 306 309 302 292 286 286 289 284 288 288 288 296 306 306 306 290 272 271 272 271 274 278 273 277 271 274 275 273 265 251 242 261 271 274 247 239 247 260 298
301 310 313 300 290 291 293 295 299 299 296 294 293 290 287 294 300 305 311 285 278 280 277 274 272 276 282 290 273 267 277 285 280 269 272 281 295 302 300 267 270 180 313
307 316 315 306 292 287 289 296 302 298 296 299 300 293 290 287 294 302 305 282 282 287 289 281 275 280 290 288 257 251 262 269 273 295 300 304 299 299 302 262 222 205 224
335 324 315 310 300 293 296 297 299 300 306 301 294 291 286 296 302 301 301 286 276 283 284 282 278 284 289 288 273 248 260 273 260 261 279 296 311 311 304 303 252 207 206
339 322 314 310 306 309 304 302 302 303 304 302 301 304 299 302 306 301 306 303 299 277 275 276 281 292 292 289 277 275 281 282 257 251 263 284 291 298 305 56 68 59 351
335 322 316 312 308 307 305 302 302 303 302 301 301 302 308 314 312 312 311 311 308 296 286 296 303 308 306 293 289 291 279 241 213 225 241 263 276 224 100 62 53 48 24
321 313 311 314 314 313 308 305 302 300 298 300 300 301 308 313 312 315 313 311 309 307 302 302 307 314 316 316 314 306 271 214 206 217 228 270 333 37 107 112 97 59 30
323 317 313 312 311 314 314 311 304 283 290 295 290 290 297 300 307 315 318 312 312 309 324 327 323 328 331 340 345 354 5 351 267 244 210 257 335 358 23 84 96 77 28
322 317 309 310 312 312 309 314 312 300 302 300 296 296 297 302 312 317 318 319 324 333 342 322 308 312 309 314 317 327 340 313 278 212 182 196 232 285 344 28 34 68 293
313 312 314 322 321 315 313 313 316 321 314 309 306 307 306 309 312 314 318 318 322 335 339 320 313 311 313 325 334 324 302 293 286 205 204 231 246 243 253 279 352 343 312
312 307 314 315 314 313 312 311 310 315 322 322 318 319 320 318 317 319 325 332 331 337 333 320 312 312 319 332 332 323 326 328 305 265 258 229 200 214 239 252 216 206 247
305 303 308 311 311 311 312 313 315 316 316 319 326 327 327 324 323 331 341 340 328 326 329 325 321 320 322 325 321 313 305 301 298 270 253 224 193 184 220 248 236 277 281
296 302 311 305 301 306 312 316 317 317 317 320 323 325 330 335 339 342 346 343 329 321 319 315 315 313 314 316 316 314 318 328 331 301 234 229 206 188 212 220 222 219 241
300 301 307 312 306 305 308 310 311 313 315 317 316 319 330 330 327 327 329 332 323 319 315 309 308 311 311 314 309 304 298 299 302 299 283 245 206 218 224 214 222 210 171
293 297 298 303 306 304 307 304 308 310 311 312 315 319 327 329 324 323 322 323 321 316 312 307 306 306 304 299 291 289 286 281 272 256 267 267 231 230 214 197 187 173 172
277 284 293 299 304 303 308 307 306 307 308 308 310 315 319 319 319 317 317 321 324 322 318 311 304 307 314 305 283 258 252 253 249 230 221 231 226 217 209 208 206 198 203
272 277 284 293 301 302 300 300 302 303 303 304 306 305 308 311 311 311 315 319 321 319 318 317 310 309 314 316 309 292 267 254 237 219 207 202 214 215 203 191 198 217 199
272 276 281 283 286 290 295 299 300 300 299 301 303 305 306 306 306 309 312 314 316 316 318 319 322 319 315 317 312 299 281 267 256 214 186 186 200 202 190 184 186 181 160
266 274 279 279 279 282 285 289 294 300 299 297 298 300 301 302 302 306 312 316 317 315 315 318 321 320 314 312 307 296 284 267 240 191 153 161 185 198 184 182 180 175 155